Location: *
(50.3440°N, 18.6237°E)
Time: 17:16:47
(UTC+00:00)

Cosmos 371 Rocket - Pass Details

Date: 30 November 2020
Orbit: 684 x 698 km, 74.0° (Epoch: 17 January)

Event Time Altitude Azimuth Distance (km) Brightness Sun altitude
Rises 17:41:49 0° 335° (NNW) 3,094 6.9 -27.2°
Reaches altitude 10° 17:44:09 10° 336° (NNW) 2,171 6.1 -27.6°
Enters shadow 17:47:19 41° 336° (NNW) 1,016 4.2 -28.1°
